Regional Weather Roundup
Issued by NWS

Home | Current Version | Previous Version | Graphics & Text | Print | Product List | Glossary On
Versions: 1 2 3 4 5 6 7 8 9 10 11 12 13 14 15 16 17 18 19 20 21 22 23 24 25 26 27 28 29 30 31 32 33 34 35 36 37 38 39 40 41 42 43 44 45 46 47 48 49
000
ASUS45 KCYS 300110
RWRWY

WYOMING REGIONAL WEATHER ROUNDUP
NATIONAL WEATHER SERVICE CHEYENNE WY
700 PM MDT MON SEP 29 2014

NOTE:  "FAIR" INDICATES FEW OR NO CLOUDS BELOW 12,000 FEET
WITH NO SIGNIFICANT WEATHER AND/OR OBSTRUCTIONS TO VISIBILITY.

WYZ001-300200-
YELLOWSTONE NATIONAL PARK

CITY           SKY/WX    TMP DP  RH WIND       PRES   REMARKS
LK YELLOWSTONE   N/A     41  34  76 VRB3      30.03S
W YELLOWSTONE  NOT AVBL

$$
WYZ002>013-054>058-071-098>099-300200-
NORTHERN WYOMING

CITY           SKY/WX    TMP DP  RH WIND       PRES   REMARKS
JACKSON        MOCLDY    46  41  81 MISG      29.98F
CODY           MOCLDY    52  46  82 S5        29.87S
GREYBULL       MOCLDY    64  46  52 CALM      29.81F
WORLAND        MOCLDY    62  47  57 N5        29.80F
SHERIDAN       MOCLDY    56  50  80 N6        29.83S
BUFFALO        CLOUDY    58  47  66 S14       29.85F
GILLETTE       MOCLDY    56  48  74 S13       29.84F
HULETT         FAIR      52  50  93 CALM      29.87
NEWCASTLE      FAIR      54  50  87 SE3       29.88

$$
WYZ014>020-022>026-101>103-300200-
CENTRAL WYOMING

CITY           SKY/WX    TMP DP  RH WIND       PRES   REMARKS
BIG PINEY      MOCLDY    48  35  60 N9        30.00R
PINEDALE       PTCLDY    45  36  70 NW10      30.02R
DUBOIS         CLOUDY    45  34  65 NW14      29.98R
LANDER         MOCLDY    58  32  37 W13       29.86S
RIVERTON       MOCLDY    58  43  57 NW6       29.87F
CASPER         CLOUDY    56  45  66 S3        29.89F
DOUGLAS        CLOUDY    58  42  55 S8        29.88F

$$
WYZ021-027>030-104>119-300200-
SOUTHERN WYOMING

CITY           SKY/WX    TMP DP  RH WIND       PRES   REMARKS
EVANSTON       PTCLDY    47  37  68 W9        30.04R
KEMMERER       MOCLDY    45  37  76 W6        30.03R
FORT BRIDGER   FAIR      48  40  74 NW6       30.06R
ROCK SPRINGS   MOCLDY    49  37  63 W6        29.99S
DIXON          FAIR      51  38  61 SW6       29.99F
RAWLINS        CLOUDY    50  36  58 W9        29.98R
SARATOGA         N/A     48  39  71 W5        29.99F
LARAMIE        LGT RAIN  41  39  93 NE13      29.99F
CHEYENNE       HVY RAIN  47  44  90 N26G35    29.87F FOG
TORRINGTON     LGT RAIN  57  54  89 N14       29.85S
PINE BLUFFS    RAIN      52  48  87 NW21      29.87R

$$


USA.gov is the U.S. government's official web portal to all federal, state and local government web resources and services.